TimePST,TemperatureF,Dew PointF,Humidity,Sea Level PressureIn,VisibilityMPH,Wind Direction,Wind SpeedMPH,Gust SpeedMPH,PrecipitationIn,Events,Conditions,WindDirDegrees,DateUTC
12:08 AM,41.0,41.0,100,29.62,10.0,SSE,18.4,24.2,N/A,Rain,Light Rain,160,2013-11-19 08:08:00
12:13 AM,41.0,41.0,100,29.61,10.0,South,17.3,23.0,N/A,Rain,Light Rain,170,2013-11-19 08:13:00
12:21 AM,42.8,41.0,93,29.61,10.0,South,21.9,27.6,N/A,,Overcast,170,2013-11-19 08:21:00
12:31 AM,42.8,41.0,93,29.61,10.0,South,18.4,27.6,N/A,,Overcast,170,2013-11-19 08:31:00
12:36 AM,42.8,41.0,93,29.61,10.0,South,18.4,24.2,N/A,,Overcast,170,2013-11-19 08:36:00
12:58 AM,41.7,40.1,94,29.62,10.0,South,18.4,26.5,0.01,,Overcast,170,2013-11-19 08:58:00
1:58 AM,42.6,40.3,91,29.62,10.0,South,18.4,-,N/A,,Partly Cloudy,170,2013-11-19 09:58:00
2:58 AM,43.0,40.3,90,29.62,10.0,South,13.8,-,N/A,,Mostly Cloudy,170,2013-11-19 10:58:00
3:02 AM,42.8,41.0,93,29.58,10.0,South,16.1,-,N/A,,Mostly Cloudy,170,2013-11-19 11:02:00
3:14 AM,42.8,41.0,93,29.58,10.0,South,16.1,24.2,N/A,,Overcast,170,2013-11-19 11:14:00
3:39 AM,42.8,39.2,87,29.58,10.0,SSE,11.5,-,N/A,,Mostly Cloudy,160,2013-11-19 11:39:00
3:57 AM,44.6,41.0,87,29.57,10.0,South,17.3,24.2,N/A,,Overcast,180,2013-11-19 11:57:00
3:58 AM,43.9,40.1,87,29.60,10.0,South,17.3,24.2,0.00,,Overcast,180,2013-11-19 11:58:00
4:58 AM,44.8,40.1,84,29.59,10.0,South,21.9,34.5,0.00,,Overcast,190,2013-11-19 12:58:00
5:58 AM,45.0,39.6,81,29.58,10.0,South,18.4,32.2,N/A,,Mostly Cloudy,190,2013-11-19 13:58:00
6:58 AM,45.3,39.7,81,29.60,10.0,South,25.3,33.4,N/A,,Overcast,190,2013-11-19 14:58:00
7:58 AM,45.0,39.6,81,29.60,10.0,South,23.0,29.9,N/A,,Scattered Clouds,190,2013-11-19 15:58:00
8:58 AM,46.8,40.5,79,29.59,10.0,South,26.5,36.8,N/A,,Clear,190,2013-11-19 16:58:00
9:58 AM,48.7,42.1,78,29.61,10.0,SSW,20.7,29.9,N/A,,Partly Cloudy,200,2013-11-19 17:58:00
10:58 AM,50.4,43.3,77,29.59,10.0,SSW,24.2,35.7,N/A,,Mostly Cloudy,200,2013-11-19 18:58:00
11:13 AM,50.0,42.8,76,29.57,10.0,SSW,24.2,29.9,N/A,,Mostly Cloudy,200,2013-11-19 19:13:00
11:18 AM,50.0,42.8,76,29.57,10.0,SSW,24.2,31.1,N/A,,Overcast,200,2013-11-19 19:18:00
11:23 AM,50.0,42.8,76,29.57,10.0,SSW,26.5,34.5,N/A,,Mostly Cloudy,210,2013-11-19 19:23:00
11:28 AM,50.0,42.8,76,29.57,10.0,SSW,24.2,34.5,N/A,,Mostly Cloudy,200,2013-11-19 19:28:00
11:58 AM,50.7,43.7,77,29.59,10.0,SSW,25.3,31.1,N/A,,Mostly Cloudy,210,2013-11-19 19:58:00
12:18 PM,50.0,44.6,82,29.57,10.0,SSW,24.2,32.2,N/A,,Overcast,210,2013-11-19 20:18:00
12:53 PM,50.0,44.6,82,29.57,10.0,SSW,23.0,28.8,N/A,,Overcast,210,2013-11-19 20:53:00
12:58 PM,49.6,43.7,80,29.58,10.0,SSW,20.7,27.6,N/A,,Overcast,210,2013-11-19 20:58:00
1:18 PM,50.0,44.6,82,29.57,10.0,SSW,17.3,-,N/A,,Overcast,210,2013-11-19 21:18:00
1:23 PM,50.0,44.6,82,29.57,10.0,SW,18.4,24.2,N/A,,Overcast,220,2013-11-19 21:23:00
1:58 PM,49.3,42.4,77,29.59,10.0,SW,18.4,-,N/A,,Mostly Cloudy,220,2013-11-19 21:58:00
2:08 PM,50.0,42.8,76,29.58,10.0,SSW,19.6,-,N/A,,Scattered Clouds,210,2013-11-19 22:08:00
2:58 PM,48.0,41.7,79,29.59,10.0,SSW,20.7,29.9,N/A,,Clear,200,2013-11-19 22:58:00
3:58 PM,46.2,39.9,79,29.61,10.0,SSW,16.1,25.3,N/A,,Clear,210,2013-11-19 23:58:00
4:58 PM,43.9,36.0,74,29.65,10.0,SW,12.7,-,N/A,,Clear,230,2013-11-20 00:58:00
5:47 PM,39.2,32.0,75,29.64,10.0,SW,13.8,-,N/A,,Clear,220,2013-11-20 01:47:00
5:58 PM,40.5,28.4,62,29.68,10.0,SW,13.8,-,0.00,,Clear,230,2013-11-20 01:58:00
6:12 PM,41.0,28.4,61,29.64,10.0,SW,10.4,-,N/A,,Clear,220,2013-11-20 02:12:00
6:58 PM,38.3,28.4,68,29.70,10.0,South,10.4,-,0.00,,Clear,190,2013-11-20 02:58:00
7:05 PM,37.4,28.4,70,29.65,10.0,SSW,10.4,-,N/A,,Clear,210,2013-11-20 03:05:00
7:21 PM,37.4,26.6,65,29.65,10.0,SW,9.2,-,N/A,,Clear,220,2013-11-20 03:21:00
7:58 PM,36.3,27.1,69,29.71,10.0,South,8.1,-,0.00,,Clear,190,2013-11-20 03:58:00
8:13 PM,35.6,26.6,70,29.68,10.0,SW,10.4,-,N/A,,Clear,230,2013-11-20 04:13:00
8:23 PM,35.6,26.6,70,29.68,10.0,SW,10.4,-,N/A,,Clear,230,2013-11-20 04:23:00
8:29 PM,35.6,26.6,70,29.68,10.0,SW,9.2,-,N/A,,Clear,220,2013-11-20 04:29:00
8:45 PM,35.6,26.6,70,29.69,10.0,SW,10.4,-,N/A,,Clear,230,2013-11-20 04:45:00
8:58 PM,34.5,27.1,74,29.74,10.0,WSW,8.1,-,0.00,,Clear,240,2013-11-20 04:58:00
9:58 PM,33.8,26.4,74,29.76,10.0,WNW,8.1,-,N/A,,Clear,300,2013-11-20 05:58:00
9:59 PM,33.8,24.8,70,29.72,10.0,NW,8.1,-,N/A,,Clear,310,2013-11-20 05:59:00
10:28 PM,35.6,24.8,65,29.73,10.0,NW,8.1,-,N/A,,Clear,320,2013-11-20 06:28:00
10:48 PM,32.0,24.8,75,29.74,10.0,NW,10.4,-,N/A,,Clear,320,2013-11-20 06:48:00
10:58 PM,33.3,23.7,68,29.79,10.0,NNW,11.5,-,0.00,,Clear,330,2013-11-20 06:58:00
11:12 PM,33.8,21.2,60,29.76,10.0,NW,12.7,-,N/A,,Clear,320,2013-11-20 07:12:00
11:58 PM,34.0,16.5,49,29.82,10.0,NW,16.1,23.0,0.00,,Clear,320,2013-11-20 07:58:00